Reflectivity
-20 -20 -20 -20 -20 -20 -20 -20 -20 -20 -20 -20 -20 -20 -20 -20 -20 -20 -20 -20 -20 -20 -20 -20 -20 -20 -20 -20 -20 -20 -20 -20 -20 -20 -20 -20 -20 -20 -20 -20 -20 -20 -20
-20 -20 -20 -20 -20 -20 -20 -20 -20 -20 -20 -20 -20 -20 -20 -20 -20 -20 -20 -20 -20 -20 -20 -20 -20 -20 -20 -20 -20 -20 -20 -20 -20 -20 -20 -20 -20 -20 -20 -20 -20 -20 -20
-20 -20 -20 -20 -20 -20 -20 -20 -20 -20 -20 -20 -20 -20 -20 -20 -20 -20 -20 -20 -20 -20 -20 -20 -20 -20 -20 -20 -20 -20 -20 -20 -20 -20 -20 -20 -20 -20 -20 -20 -20 -20 -20
-20 -20 -20 -20 -20 -20 -20 -20 -20 -20 -20 -20 -20 -20 -20 -20 -20 -20 -20 -20 -20 -20 -20 -20 -20 -20 -20 -20 -20 -20 -20 -20 -20 -20 -20 -20 -20 -20 -20 -20 -20 -20 -20
-20 -20 -20 -20 -20 -20 -20 -20 -20 -20 -20 -20 -20 -20 -20 -20 -20 -20 -20 -20 -20 -20 -20 -20 -20 -20 -20 -20 -20 -20 -20 -20 -20 -20 -20 -20 -20 -20 -20 -20 -20 -20 -20
-20 -20 -20 -20 -20 -20 -20 -20 -20 -20 -20 -20 -20 -20 -20 -20 -20 -20 -20 -20 -20 -20 -20 -20 -20 -20 -20 -20 -20 -20 -20 -20 -20 -20 -20 -20 -20 -20 -20 -20 -20 -20 -20
-20 -20 -20 -20 -20 -20 -20 -20 -20 -20 -20 -20 -20 -20 -20 -20 -20 -20 -20 -20 -20 -20 -20 -20 -20 -20 -20 -20 -20 -20 -20 -20 -20 -20 -20 -20 -6 -8 -17 -20 -20 -20 -1
-20 -20 -20 -20 -20 -20 -20 -20 -20 -20 -20 -20 -20 -20 -20 -20 -20 -20 -20 -20 -20 -20 -20 -20 -20 -20 -20 -20 -20 -20 -20 -20 -20 -20 -20 -5 -1 1 -20 -5 -20 -18 12
-20 -20 -20 -20 -20 -20 -20 -20 -20 -20 -20 -20 -20 -20 -20 -20 -20 -20 -20 -20 -20 -20 -20 -20 -20 -20 -20 -20 -20 -20 -20 -20 -20 -20 -20 -5 -2 -12 -19 10 20 16 12
-20 -20 -20 -20 -20 -20 -20 -20 -20 -20 -20 -20 -20 -20 -20 -20 -20 -20 -20 -20 -20 -20 -20 -20 -20 -20 -20 -20 -20 -20 -20 -20 -20 -20 -20 -20 2 4 8 10 17 13 2
-20 -20 -20 -20 -20 -20 -20 -20 -20 -20 -20 -20 -20 -20 -20 -20 -20 -20 -20 -20 -20 -20 -20 -20 -20 -20 -20 -20 -20 -20 -20 -20 -20 -20 -10 -0 1 -11 5 9 12 4 13
-20 -20 -20 -20 -20 -20 -20 -20 -20 -20 -20 -20 -20 -20 -20 -20 -20 -20 -20 -20 -20 -20 -20 -20 -20 -20 -20 -20 -20 -20 -20 -20 -20 -20 -9 -12 -5 8 6 11 11 -1 10
-20 -20 -20 -20 -20 -20 -20 -20 -20 -20 -20 -20 -20 -20 -20 -20 -20 -20 -20 -20 -20 -20 -20 -20 -20 -20 -20 -20 -20 -20 -20 -20 -20 -20 -20 -8 -6 -4 3 -2 7 9 -6
-20 -20 -20 -20 -20 -20 -20 -20 -20 -20 -20 -20 -20 -20 -20 -20 -20 -20 -20 -20 -20 -20 -20 -20 -20 -20 -20 -20 -20 -20 -20 -20 -20 -20 -20 -5 -1 0 0 0 -18 11 14
-20 -20 -20 -20 -20 -20 -20 -20 -20 -20 -20 -20 -20 -20 -20 -20 -20 -20 -20 -20 -20 -20 -20 -20 -20 -20 -20 -20 -20 -20 -20 -20 -20 -20 -20 -20 -20 -20 -16 2 12 12 15
-20 -20 -20 -20 -20 -20 -20 -20 -20 -20 -20 -20 -20 -20 -20 -20 -20 -20 -20 -20 -20 -20 -20 -20 -20 -20 -20 -20 -20 -20 -20 -20 -20 -20 -20 -20 -20 -20 -5 2 -12 11 18
-20 -20 -20 -20 -20 -20 -20 -20 -20 -20 -20 -20 -20 -20 -20 -20 -20 -20 -20 -20 -20 -20 -20 -20 -20 -20 -20 -20 -20 -20 -20 -20 -20 -20 -20 -20 -20 -20 -20 -20 -20 -3 11
-20 -20 -20 -20 -20 -20 -20 -20 -20 -20 -20 -20 -20 -20 -20 -20 -20 -20 -20 -20 -20 -20 -20 -20 -20 -20 -20 -20 -20 -20 -20 -20 -20 -20 -20 -20 -20 -20 -20 -18 -20 -11 2
-20 -20 -20 -20 -20 -20 -20 -20 -20 -20 -20 -20 -20 -20 -20 -20 -20 -20 -20 -20 -20 -20 -20 -20 -20 -20 -20 -20 -20 -20 -20 -20 -20 -20 -20 -20 -20 -20 -20 -20 -14 11 -2
-20 -20 -20 -20 -20 -20 -20 -20 -20 -20 -20 -20 -20 -20 -20 -20 -20 -20 -20 -20 -20 -20 -16 -20 -20 -20 -20 -20 -20 -20 -20 -20 -20 -20 -20 -20 -20 -20 -20 -20 -20 -20 -20
-20 -20 -20 -20 -20 -20 -20 -20 -20 -20 -20 -20 -20 -20 -20 -20 -20 -20 -20 -20 -20 -17 -14 -4 -8 -16 -20 -20 -20 -20 -20 -20 -20 -15 -20 -20 -20 -20 -20 -20 -20 -20 -20
-20 -20 -20 -20 -20 -20 -20 -19 -9 -20 -20 -20 -20 -20 -20 -20 -20 -20 -20 -20 -20 -20 -20 -20 1 -20 -20 -20 -20 -20 -18 -18 -13 -20 -20 -20 -20 -20 -20 -20 -20 -20 -20
-20 -20 -20 -20 -20 -20 -14 -7 -9 -10 -20 -20 -20 -20 -20 -20 -20 -20 -20 -20 -20 -20 -20 -20 -20 -20 -20 -20 -14 -18 -16 -20 -20 -20 -20 -20 -20 -20 -20 -20 -20 -20 -20
-20 -20 -20 -20 -20 -19 5 -6 1 -9 -20 -20 -20 -20 -20 -20 -20 -20 -20 -20 -20 -20 -20 -20 -20 -20 -20 -20 -20 -20 -18 -20 -20 -20 -20 -18 -20 -20 -20 -20 -20 -20 -20
-20 -20 -20 -20 -20 -20 -4 -6 -6 -6 -20 -20 -20 -20 -20 -20 -20 -20 -20 -20 -20 -20 -20 -20 -20 -20 -20 -20 -20 -20 -20 -20 -20 -20 -20 -20 -20 -20 -20 -20 -20 -20 -20
-20 -20 -20 -20 2 -6 6 -0 -12 -17 -19 -19 -20 -20 -20 -20 -20 -20 -20 -20 -20 -20 -20 -20 -20 -20 -20 -20 -20 -20 -20 -18 -18 -16 -20 -20 -15 -12 7 -18 -20 -20 -20
Wind_Speed
6 7 6 6 5 5 4 3 5 5 5 4 4 4 5 5 4 4 5 9 11 9 10 11 13 15 15 15 15 15 15 16 16 17 17 17 18 18 19 19 19 19 19
7 6 5 5 5 5 4 3 4 4 4 2 4 4 3 3 3 4 4 6 8 6 7 10 11 14 15 15 16 15 16 17 17 17 17 17 18 19 19 19 20 19 20
10 9 6 6 6 5 6 5 4 2 3 2 3 3 2 2 3 4 4 3 3 6 2 7 12 15 15 15 16 16 16 17 17 17 18 19 19 19 20 20 21 21 20
11 8 6 6 6 5 5 4 4 2 1 0 1 3 2 3 3 4 4 3 2 3 1 5 9 14 14 15 16 16 16 16 16 17 18 19 19 20 20 21 21 21 21
12 8 7 6 7 5 5 4 3 1 0 0 1 2 1 3 4 4 5 2 2 1 2 7 9 13 13 15 16 16 16 16 17 18 18 19 20 20 21 22 22 22 23
11 8 7 8 6 5 5 4 3 2 1 2 3 3 2 3 3 4 5 3 1 1 2 5 5 7 15 15 16 15 16 17 18 18 19 20 21 21 22 23 23 24 24
11 10 7 8 6 6 6 5 3 3 1 3 4 4 4 3 4 3 3 2 1 1 3 4 4 4 6 15 14 15 17 18 18 19 21 21 21 22 23 24 25 25 26
11 9 9 8 8 5 7 6 4 2 2 3 3 3 3 3 3 4 1 1 1 2 4 5 6 7 7 6 10 16 16 17 19 21 22 23 24 25 25 25 26 26 26
12 10 11 8 8 6 6 5 4 4 2 0 2 3 2 1 2 3 3 1 2 2 4 4 6 7 8 7 10 11 15 18 20 22 24 25 25 26 27 27 28 27 28
12 11 10 9 9 6 7 5 4 3 1 3 1 2 3 3 2 2 3 4 3 6 4 4 5 7 8 6 10 14 17 18 22 24 25 26 27 28 29 28 29 28 29
13 12 11 10 9 6 7 6 5 4 1 1 2 2 0 2 1 2 3 3 4 2 4 3 6 5 6 6 5 9 17 20 23 25 27 28 29 30 30 30 30 30 29
11 12 12 10 9 8 8 7 5 5 4 2 1 2 2 1 2 3 3 4 7 4 5 7 4 4 4 5 9 16 18 22 25 28 28 29 30 31 31 32 32 31 32
12 14 14 11 9 9 9 8 6 5 5 4 5 3 2 1 1 2 3 4 4 4 4 5 3 3 5 4 7 16 20 26 27 28 29 30 31 31 32 32 33 33 33
14 16 13 12 12 11 9 8 6 5 5 4 5 3 2 2 2 3 3 3 5 4 6 7 7 2 4 8 14 24 14 25 28 30 31 32 32 32 32 32 33 34 33
13 17 16 14 12 12 11 10 6 7 6 6 6 6 4 3 3 3 3 3 3 4 5 3 4 4 9 10 13 14 15 22 29 31 32 32 32 33 33 33 34 34 34
18 19 17 15 14 13 12 10 7 8 7 5 4 6 5 4 4 3 4 4 5 6 8 4 9 14 12 12 16 16 16 26 28 30 31 32 32 33 34 35 36 35 34
19 19 18 16 15 14 12 11 9 8 7 6 5 6 6 5 4 4 4 5 5 6 11 11 11 12 15 16 15 14 15 15 14 26 30 33 34 36 36 37 37 36 35
19 19 18 17 16 14 13 12 10 9 9 8 8 6 6 5 6 6 5 7 6 7 9 16 12 12 15 15 16 17 13 12 13 22 32 32 35 36 36 36 35 35 35
20 19 18 17 17 15 14 12 11 9 9 8 7 7 6 6 6 5 6 6 6 6 8 11 14 11 12 12 15 14 14 14 10 25 30 32 33 35 35 35 35 34 34
19 19 17 17 16 15 13 11 10 9 8 7 6 6 7 6 6 6 5 6 7 8 9 10 11 13 12 13 12 14 13 11 13 13 21 26 31 32 34 34 33 34 33
17 18 17 16 15 13 10 12 10 8 8 7 6 7 7 7 7 9 6 7 8 8 8 10 12 13 13 13 14 13 15 15 13 13 16 14 13 14 17 26 28 32 32
16 16 16 15 15 9 20 19 12 7 7 7 7 6 6 7 9 11 11 15 13 11 11 9 11 14 15 14 13 14 16 15 19 6 13 20 14 15 15 14 28 34 36
15 15 15 15 14 11 21 20 17 7 7 6 5 4 4 4 5 6 10 14 14 18 19 14 14 13 16 16 18 19 17 16 17 15 17 21 14 17 15 16 32 36 37
15 14 15 14 13 10 21 19 16 6 6 5 5 4 4 4 4 6 8 9 10 11 11 9 11 14 15 17 16 16 20 21 17 12 13 20 15 17 17 15 32 39 41
13 13 13 14 13 11 19 17 13 6 6 5 4 4 4 5 6 9 8 9 11 10 12 19 23 26 27 27 23 14 13 15 18 16 12 16 15 17 17 19 18 34 35
14 12 13 12 16 12 17 16 12 5 5 3 4 4 6 6 7 12 8 9 10 10 12 14 13 14 18 17 24 13 13 15 15 21 12 15 17 17 17 15 15 16 17
Wind_Direction
157 147 150 147 130 138 125 117 94 96 89 82 68 73 77 85 90 100 101 76 48 40 31 21 15 7 360 358 357 356 355 353 350 348 346 343 340 337 334 331 327 324 320
147 140 144 135 133 117 122 102 87 92 92 88 103 85 84 103 98 113 95 109 75 53 24 13 2 358 354 352 350 350 351 350 347 345 342 338 335 334 331 327 323 320 319
149 151 148 146 134 131 125 117 105 136 122 152 121 119 130 132 137 133 123 78 114 146 38 351 354 349 347 343 341 344 346 346 344 341 337 336 334 329 326 324 321 318 316
154 154 152 141 141 158 128 122 124 154 111 331 177 145 164 170 165 167 152 77 69 357 291 350 334 338 337 334 336 338 339 341 339 335 335 331 329 326 322 318 314 311 309
163 153 151 140 152 153 131 125 113 320 194 230 296 207 227 191 182 183 169 130 102 346 347 336 327 324 326 328 330 331 334 335 332 332 329 327 323 319 316 312 310 307 303
167 154 145 153 150 152 130 135 131 95 17 334 276 239 195 192 189 209 191 192 111 314 317 330 321 317 325 323 323 323 325 326 329 328 324 321 318 314 310 306 303 301 301
169 159 150 158 156 160 138 140 140 159 108 337 266 193 186 204 218 203 193 228 305 323 325 311 308 320 308 316 315 318 317 320 321 321 319 317 312 309 306 305 303 300 297
169 165 157 166 160 148 140 151 178 140 88 347 317 277 208 172 186 210 262 268 329 334 313 310 316 308 304 310 305 310 305 311 316 316 315 312 310 310 307 304 301 299 300
170 168 169 159 155 158 148 159 170 183 168 132 347 317 245 38 336 112 196 219 222 308 292 311 302 306 299 300 303 299 302 309 311 313 312 312 309 306 304 302 301 300 295
173 173 169 159 159 162 141 158 160 154 221 194 196 21 41 19 357 308 187 208 205 259 280 289 302 302 296 290 293 292 294 304 307 309 309 308 305 303 302 302 301 301 298
175 176 168 166 161 158 145 150 156 169 191 196 247 183 206 104 78 282 295 308 302 304 295 280 292 289 290 292 292 290 293 301 304 308 307 304 303 302 300 301 300 298 298
173 174 173 168 166 152 147 150 160 165 160 193 181 236 241 210 170 226 271 301 303 290 316 288 264 268 270 287 287 299 299 300 303 304 304 302 301 300 300 298 299 298 294
174 178 173 170 168 150 152 148 161 170 165 188 208 196 214 245 336 283 284 289 298 315 289 289 266 283 307 309 290 302 302 300 300 299 300 300 301 301 298 296 295 292 291
173 166 168 171 166 154 153 153 162 171 172 198 210 220 199 208 218 248 264 298 308 283 298 273 326 297 316 319 305 307 298 297 300 299 298 299 297 296 294 293 289 287 287
169 165 166 168 165 157 158 158 168 174 181 196 205 212 215 216 222 238 248 256 261 302 311 321 301 304 320 303 299 301 295 291 295 296 296 298 297 294 291 289 288 285 284
167 165 164 168 162 159 160 161 172 177 188 192 209 210 211 220 228 237 246 247 245 257 268 280 296 299 302 299 297 299 293 291 293 295 296 295 294 293 291 292 290 287 284
166 166 165 165 162 161 163 168 173 173 192 193 201 220 222 231 241 243 247 252 256 258 272 284 290 295 295 295 297 293 290 288 287 294 297 300 299 296 297 294 292 288 286
166 164 163 163 161 164 164 171 172 176 191 198 202 210 226 230 239 250 254 260 264 272 280 289 294 299 292 294 295 297 297 295 300 301 299 300 298 296 293 291 290 288 284
164 164 163 164 163 162 164 172 175 181 190 200 203 213 221 227 244 251 259 273 280 288 290 284 290 294 298 301 301 298 300 297 301 301 297 294 295 293 291 289 288 286 283
164 164 165 161 159 158 162 165 170 178 185 197 202 219 227 234 249 266 281 292 279 277 290 290 296 304 304 305 303 310 307 304 302 297 290 291 291 293 292 290 290 288 283
165 162 159 155 152 155 159 158 162 168 182 191 202 215 225 239 268 275 281 285 292 291 300 298 298 302 304 311 312 313 302 305 301 302 298 291 293 295 287 287 283 281 282
160 156 156 149 144 144 158 160 159 166 181 192 204 212 221 230 247 262 274 281 285 289 286 289 293 299 301 306 308 307 303 308 311 288 305 294 292 287 284 280 284 287 285
149 150 145 143 138 140 161 164 164 162 183 195 200 217 239 256 253 269 281 289 286 291 294 296 293 297 305 306 304 308 306 299 296 300 293 291 297 287 289 284 290 288 285
153 148 146 138 133 147 160 162 167 156 185 192 200 225 244 261 273 287 295 292 299 294 294 298 297 298 294 302 304 303 301 299 292 292 289 285 298 290 293 287 291 289 284
143 142 134 127 128 142 155 159 165 159 193 194 205 230 252 275 285 308 304 300 299 299 300 305 304 304 306 306 304 304 301 304 301 299 295 285 293 292 294 290 282 280 284
137 130 119 121 134 136 154 162 168 174 180 191 203 229 240 263 301 313 311 313 303 307 312 309 308 304 302 295 300 299 299 298 296 296 296 298 297 299 296 286 277 288 280